Weather in Hinton

Canada     53°23′45″N   117°35′49″W
temp.,
°C
wind,
m/s
gust,
m/s
humid.,
%
clouds,
%
prec.,
mm/h
press.,
hPa
HPBL,
m
8 december, wed
wed823:00−6sw2586100 0.3 999159
02:00−7sw3988100 0.4 996176
05:00−6sw3984100 0.4 992184
08:00−3wnw41177100 0.6 992770
11:00−4wnw61268100 0.9 9961497
14:00−3w715490 0.0 9961821
17:00−6w61454100 0.0 999817
20:00−7w5145941 0.0 999837
9 december, thu
thu923:00−7w51357100 0.0 1000959
02:00−8wsw51363100 0.0 1001845
05:00−11wsw41372100 0.0 1003515
08:00−11wsw5146928 0.0 1004538
11:00−8wsw41363100 0.0 1003724
14:00−5wsw41356100 0.0 10021578
17:00−7w41358100 0.0 1003791
20:00−10wsw2780100 0.0 1005162
10 december, fri
fri1023:00−12wsw398212 0.0 1007244
02:00−13sw3108535 0.0 1009193
05:00−13wsw310838 0.0 1008214
08:00−15sw259356 0.0 100983
11:00−10sw31175100 0.0 1006298
14:00−6wsw51463100 0.0 1001729
17:00−8sw31278100 0.0 1001407
20:00−9sw41675100 0.0 1000485
11 december, sat
sat1123:00−10sw3880100 0.0 998202
02:00−14s11935 0.0 99731
05:00−11sw518806 0.0 991352
08:00−12sw414874 0.0 989205
11:00−9sw487637 0.0 986157
14:00−5nw2988100 0.3 985704
17:00−7sw1297100 3.1 98869
20:00−9ssw259753 0.3 99175
12 december, sun
sun1223:00−12sw2497100 0.3 99252
02:00−11sw2391100 0.0 98965
05:00−10sw1192100 0.1 99041
08:00−13w2496100 0.3 99352
11:00−9w2388100 0.3 99687
14:00−5w14660 0.0 996257
17:00−13s11947 0.0 10039
20:00−16sw229622 0.0 100829